Location: Palmerston North
(40.3500°S, 175.6170°E)
Time: 06:18:33
(UTC+12:00)

CZ-2D R/B - Visible Passes

Search period start: 22 April 2019 00:00
Search period end: 02 May 2019 00:00
Orbit: 523 x 539 km, 97.4° (Epoch: 20 April)

Date Brightness Start Highest point End Pass type
(mag) Time Alt. Az. Time Alt. Az. Time Alt. Az.
23 Apr 6.1 06:21:21 10° ENE 06:23:55 17° ESE 06:26:30 10° SSE visible
24 Apr 6.3 06:11:53 10° E 06:13:49 14° ESE 06:15:46 10° SE visible
25 Apr 6.6 06:03:04 10° ESE 06:03:44 10° ESE 06:04:24 10° SE visible
